Bar Harbor, ME

6:54 AM EST on November 22, 2017 (GMT -0500)
Hancock County-Bar Harbor

Weather History for KBHB - October, 2012

Change the Weather History Date:

Monday, October 1, 2012

  Actual Average Record
Temperature  
Mean Temperature 58 °F -  
Max Temperature 62 °F 63 °F 78 °F (1954)
Min Temperature 55 °F 45 °F 33 °F (1965)
Degree Days  
Heating Degree Days 6    
Growing Degree Days 8 (Base 50)    
Moisture  
Dew Point 54 °F    
Average Humidity 90    
Maximum Humidity 100    
Minimum Humidity 72    
Precipitation  
Precipitation 0.00 in - - ()
Sea Level Pressure  
Sea Level Pressure 29.68 in    
Wind  
Wind Speed 11 mph (SSW)    
Max Wind Speed 18 mph    
Max Gust Speed 26 mph    
Visibility 10 miles    
Events      
Averages and records for this station are not official NWS values.
T = Trace of Precipitation, MM = Missing Value Source: NWS Daily Summary

Daily Weather History Graph

Daily Weather History Graph

Search for Another Location

Airport or City:

Trip Planner

Search our weather history database for the weather conditions in past years. The results will help you decide how hot, cold, wet, or windy it might be!

Date:

Astronomy

Oct. 01, 2012 Rise Set
Actual Time 6:31 AM EDT 6:13 PM EDT
Civil Twilight 6:02 AM EDT 6:42 PM EDT
Nautical Twilight 5:29 AM EDT 7:15 PM EDT
Astronomical Twilight 4:54 AM EDT 7:49 PM EDT
Moon 6:41 PM EDT (10/1) 8:03 AM EDT (10/1)
Length of Visible Light 12h 39m
Length of Day
11h 41m
Full, 98% of the Moon is Illuminated
Oct 1
Full
Oct 8
Last Quarter
Oct 15
New
Oct 21
First Quarter
Oct 29
Full

Hourly Weather History & Observations

Time (EDT) Temp. Dew Point Humidity Pressure Visibility Wind Dir Wind Speed Gust Speed Precip Events Conditions
12:15 AM 57.2 °F 55.4 °F 94% 29.68 in 10.0 mi SSW 13.8 mph 19.6 mph N/A   Overcast
12:35 AM 57.2 °F 55.4 °F 94% 29.67 in 10.0 mi South 13.8 mph - N/A   Overcast
12:55 AM 57.2 °F 55.4 °F 94% 29.67 in 10.0 mi South 9.2 mph - N/A   Overcast
1:15 AM 57.2 °F 55.4 °F 94% 29.67 in 10.0 mi SSW 15.0 mph 18.4 mph N/A   Overcast
1:55 AM 57.2 °F 57.2 °F 100% 29.67 in 10.0 mi South 15.0 mph - N/A   Overcast
2:15 AM 57.2 °F 55.4 °F 94% 29.67 in 10.0 mi South 10.4 mph 18.4 mph N/A   Overcast
2:35 AM 57.2 °F 57.2 °F 100% 29.66 in 10.0 mi SSW 12.7 mph 19.6 mph N/A   Overcast
2:55 AM 57.2 °F 57.2 °F 100% 29.66 in 10.0 mi South 12.7 mph 19.6 mph N/A   Overcast
3:15 AM 57.2 °F 57.2 °F 100% 29.65 in 10.0 mi South 11.5 mph 16.1 mph N/A   Overcast
3:35 AM 57.2 °F 55.4 °F 94% 29.65 in 10.0 mi SSW 10.4 mph - N/A   Overcast
3:55 AM 57.2 °F 55.4 °F 94% 29.64 in 10.0 mi SSW 11.5 mph - N/A   Overcast
4:35 AM 57.2 °F 55.4 °F 94% 29.63 in 10.0 mi SSW 10.4 mph - N/A   Mostly Cloudy
4:55 AM 55.4 °F 53.6 °F 94% 29.63 in 10.0 mi South 10.4 mph - N/A   Overcast
5:15 AM 55.4 °F 55.4 °F 100% 29.63 in 10.0 mi South 9.2 mph - N/A   Mostly Cloudy
5:35 AM 55.4 °F 55.4 °F 100% 29.63 in 10.0 mi South 6.9 mph - N/A   Partly Cloudy
6:15 AM 55.4 °F 53.6 °F 94% 29.63 in 10.0 mi South 10.4 mph - N/A   Mostly Cloudy
6:35 AM 55.4 °F 55.4 °F 100% 29.63 in 10.0 mi South 11.5 mph - N/A   Overcast
7:15 AM 57.2 °F 55.4 °F 94% 29.63 in 10.0 mi SSW 12.7 mph 21.9 mph N/A   Overcast
7:35 AM 57.2 °F 55.4 °F 94% 29.63 in 10.0 mi SSW 13.8 mph 18.4 mph N/A   Mostly Cloudy
7:55 AM 57.2 °F 53.6 °F 88% 29.64 in 10.0 mi SSW 15.0 mph 21.9 mph N/A   Scattered Clouds
8:15 AM 57.2 °F 53.6 °F 88% 29.64 in 10.0 mi SSW 15.0 mph - N/A   Mostly Cloudy
8:35 AM 57.2 °F 53.6 °F 88% 29.64 in 10.0 mi SSW 15.0 mph 24.2 mph N/A   Overcast
8:55 AM 57.2 °F 53.6 °F 88% 29.64 in 10.0 mi SSW 15.0 mph - N/A   Overcast
9:15 AM 57.2 °F 53.6 °F 88% 29.64 in 10.0 mi SSW 11.5 mph 26.5 mph N/A   Overcast
9:35 AM 55.4 °F 53.6 °F 94% 29.64 in 10.0 mi SSW 8.1 mph 18.4 mph N/A   Overcast
10:15 AM 55.4 °F 53.6 °F 94% 29.64 in 10.0 mi SSW 9.2 mph 16.1 mph N/A   Overcast
10:35 AM 55.4 °F 53.6 °F 94% 29.64 in 10.0 mi SSW 9.2 mph 16.1 mph N/A   Overcast
10:55 AM 55.4 °F 53.6 °F 94% 29.63 in 10.0 mi SSW 13.8 mph 19.6 mph N/A   Mostly Cloudy
11:15 AM 57.2 °F 53.6 °F 88% 29.63 in 10.0 mi SSW 13.8 mph - N/A   Overcast
11:35 AM 57.2 °F 53.6 °F 88% 29.63 in 10.0 mi SSW 12.7 mph 21.9 mph N/A   Overcast
11:55 AM 57.2 °F 53.6 °F 88% 29.63 in 10.0 mi SSW 18.4 mph 23.0 mph N/A   Overcast
12:15 PM 57.2 °F 53.6 °F 88% 29.63 in 9.0 mi SSW 13.8 mph 23.0 mph N/A   Overcast
12:35 PM 57.2 °F 53.6 °F 88% 29.62 in 10.0 mi SSW 16.1 mph 24.2 mph N/A   Overcast
1:15 PM 59.0 °F 53.6 °F 82% 29.62 in 10.0 mi SW 11.5 mph 18.4 mph N/A   Overcast
1:35 PM 59.0 °F 53.6 °F 82% 29.63 in 10.0 mi SW 9.2 mph 20.7 mph N/A   Overcast
1:55 PM 60.8 °F 53.6 °F 77% 29.63 in 10.0 mi WSW 11.5 mph 19.6 mph N/A   Overcast
2:15 PM 60.8 °F 53.6 °F 77% 29.63 in 10.0 mi WSW 6.9 mph 21.9 mph N/A   Overcast
2:35 PM 60.8 °F 53.6 °F 77% 29.64 in 10.0 mi SW 11.5 mph 19.6 mph N/A   Overcast
3:15 PM 60.8 °F 53.6 °F 77% 29.64 in 10.0 mi SW 9.2 mph 17.3 mph N/A   Overcast
3:55 PM 60.8 °F 53.6 °F 77% 29.66 in 10.0 mi SW 8.1 mph - N/A   Mostly Cloudy
4:35 PM 62.6 °F 53.6 °F 72% 29.66 in 10.0 mi WSW 8.1 mph - N/A   Scattered Clouds
4:55 PM 60.8 °F 53.6 °F 77% 29.67 in 10.0 mi SW 6.9 mph - N/A   Scattered Clouds
5:15 PM 60.8 °F 55.4 °F 82% 29.68 in 10.0 mi SW 3.5 mph - N/A   Overcast
5:35 PM 62.6 °F 53.6 °F 72% 29.69 in 10.0 mi West 6.9 mph - N/A   Mostly Cloudy
5:55 PM 60.8 °F 53.6 °F 77% 29.70 in 10.0 mi WSW 4.6 mph - N/A   Clear
6:15 PM 59.0 °F 53.6 °F 82% 29.72 in 10.0 mi SW 3.5 mph - N/A   Clear
6:35 PM 57.2 °F 53.6 °F 88% 29.73 in 10.0 mi SW 3.5 mph - N/A   Clear
6:55 PM 57.2 °F 53.6 °F 88% 29.74 in 10.0 mi Calm Calm - N/A   Clear
7:15 PM 57.2 °F 53.6 °F 88% 29.74 in 10.0 mi WSW 3.5 mph - N/A   Partly Cloudy
7:35 PM 57.2 °F 53.6 °F 88% 29.76 in 10.0 mi SW 3.5 mph - N/A   Clear
7:55 PM 55.4 °F 53.6 °F 94% 29.77 in 10.0 mi Calm Calm - N/A   Clear
8:15 PM 55.4 °F 53.6 °F 94% 29.78 in 10.0 mi Calm Calm - N/A   Clear
8:35 PM 55.4 °F 53.6 °F 94% 29.79 in 10.0 mi Calm Calm - N/A   Partly Cloudy
8:55 PM 55.4 °F 53.6 °F 94% 29.80 in 10.0 mi SW 3.5 mph - N/A   Scattered Clouds
9:15 PM 55.4 °F 53.6 °F 94% 29.80 in 10.0 mi WSW 3.5 mph - N/A   Mostly Cloudy
9:35 PM 55.4 °F 53.6 °F 94% 29.81 in 10.0 mi SW 3.5 mph - N/A   Overcast
9:55 PM 55.4 °F 53.6 °F 94% 29.81 in 10.0 mi SW 4.6 mph - N/A   Overcast
10:15 PM 55.4 °F 53.6 °F 94% 29.82 in 10.0 mi SSW 4.6 mph - N/A   Overcast
10:35 PM 57.2 °F 53.6 °F 88% 29.82 in 10.0 mi SSW 3.5 mph - N/A   Overcast
10:55 PM 57.2 °F 53.6 °F 88% 29.82 in 10.0 mi SSW 4.6 mph - N/A   Overcast
11:15 PM 57.2 °F 53.6 °F 88% 29.83 in 10.0 mi SW 3.5 mph - N/A   Overcast
11:35 PM 57.2 °F 53.6 °F 88% 29.83 in 10.0 mi Calm Calm - N/A   Overcast